This is the latest recevied weather packets stored in our database for station/object KB3UQE. If no packets are shown the sender has not sent any weather packets the latest 1 day(s).
| Time | Temp. | Humidity | Pressure | Rain* | Wind** | Luminosity | Snow |
|---|---|---|---|---|---|---|---|
| 1778098457 | 25.56° C | 63% | 1003.8 hPa | - | - | - | - |
| 1778097019 | 25.56° C | 62% | 1003.9 hPa | - | - | - | - |
| 1778090175 | 20.56° C | 60% | 1005.2 hPa | - | - | - | - |
| 1778088915 | 20° C | 59% | 1005.6 hPa | - | - | - | - |
| 1778084054 | 19.44° C | 53% | 1006.3 hPa | - | - | - | - |
| 1778081534 | 18.33° C | 51% | 1008.9 hPa | - | - | - | - |
| 1778078653 | 18.33° C | 46% | 1007.5 hPa | - | - | - | - |
| 1778077213 | 18.33° C | 43% | 1007.5 hPa | - | - | - | - |
| 1778071811 | 20° C | 40% | 1006.7 hPa | - | - | - | - |
| 1778069289 | 20.56° C | 40% | 1006.8 hPa | - | - | - | - |
| 1778066588 | 20° C | 40% | 1006.6 hPa | - | - | - | - |
| 1778061547 | 17.78° C | 40% | 1006.2 hPa | - | - | - | - |
| 1778056455 | 18.33° C | 40% | 1006.3 hPa | - | - | - | - |
| 1778056415 | 18.33° C | 40% | 1006.3 hPa | - | - | - | - |
| 1778055195 | 18.89° C | 39% | 1006.1 hPa | - | - | - | - |
| 1778055159 | 18.89° C | 39% | 1006.1 hPa | - | - | - | - |
| 1778052366 | 19.44° C | 39% | 1006.3 hPa | - | - | - | - |
| 1778050925 | 18.89° C | 39% | 1006.5 hPa | - | - | - | - |
| 1778048045 | 18.33° C | 39% | 1006.8 hPa | - | - | - | - |
| 1778045164 | 18.89° C | 39% | 1007 hPa | - | - | - | - |
| 1778043724 | 18.89° C | 39% | 1007 hPa | - | - | - | - |
| 1778042284 | 18.89° C | 39% | 1007.1 hPa | - | - | - | - |
| 1778037963 | 18.33° C | 38% | 1007.1 hPa | - | - | - | - |
| 1778036523 | 18.33° C | 38% | 1007.1 hPa | - | - | - | - |
| 1778035085 | 18.33° C | 38% | 1007.2 hPa | - | - | - | - |
* Rain since midnight (hover to see other rain measurements)
** Current wind speed in m/s (hover to see current wind gust speed)